Weather in Ahangama

Sri Lanka     6°00′08″N   80°22′10″E
temp.,
°C
wind,
m/s
gust,
m/s
humid.,
%
clouds,
%
prec.,
mm/h
press.,
hPa
HPBL,
m
30 november, tue
tue3023:30+26ssw238285 0.1 1011440
02:30+26w2382100 0.3 1010431
05:30+26nw228372 0.5 1010410
08:30+27sw018290 5.9 101278
11:30+28sw117497 8.9 1011417
14:30+28sw327413 0.8 1008633
17:30+27wsw127846 2.7 1009362
20:30+26nnw118387 7.3 101241
1 december, wed
wed123:30+25nne218898 7.5 1012118
02:30+25e118710 0.0 100984
05:30+25ene22885 0.0 1010138
08:30+26ene128120 0.0 1012246
11:30+28ssw226910 0.0 1010693
14:30+28sw227277 0.4 1008569
17:30+27ssw22755 0.6 1009379
20:30+27s117753 0.1 1011403
2 december, thu
thu223:30+26sse118067 0.7 1011326
02:30+26sw128117 0.1 1009380
05:30+25nw118390 0.4 1010324
08:30+27wnw2377100 0.0 1012604
11:30+28w347191 0.1 1011857
14:30+28w457220 0.0 1008701
17:30+27wnw46760 0.0 1008496
20:30+26nw3581100 0.0 1011420
3 december, fri
fri323:30+26nnw3485100 0.0 1011290
02:30+25nnw2387100 0.0 1009220
05:30+25nw2287100 0.0 1010157
08:30+27nw2278100 0.0 1012397
11:30+28w3374100 0.0 1011727
14:30+28wsw447487 0.1 1008640
17:30+27w3479100 0.2 1010448
20:30+27wnw238094 0.1 1012415
4 december, sat
sat423:30+26nw1282100 0.1 1012340
02:30+26nw1284100 0.3 1010201
05:30+25nnw118577 0.4 1011193
08:30+27wsw1278100 0.0 1013420
11:30+28sw3271100 0.1 1012856
14:30+28wsw447313 0.0 1009820
17:30+27wsw357711 0.0 1010589
20:30+27w347956 0.0 1012520